User: anonymous   Login
Location: Belfast
(54.5830°N, 5.9330°W)
Time: 13:14:21
(UTC+00:00)
Language:

Coronas F rocket - Orbit

View from above orbital plane
View from above orbital plane
View from above satellite
View from above satellite

Ground track
Ground track

The orbit data is extracted from the following two-line orbital elements,

1 26874U 01032B   15085.85383663  .00026556  00000-0  30546-3 0  9999
2 26874 082.4680 045.3219 0015152 091.1556 269.1438 15.61703353765265
Epoch (UTC): 26 March 2015 20:29:31
Eccentricity: 0.0015152
inclination: 82.4680°
perigee height: 372 km
apogee height: 393 km
right ascension of ascending node: 45.3219°
argument of perigee: 91.1556°
revolutions per day: 15.61703353
mean anomaly at epoch: 269.1438°
orbit number at epoch: 76526

The dashed part of the orbit path shows where the satellite is in the earth's shadow,  

DLR